Regional Weather Roundup
Issued by NWS

Home | Current Version | Previous Version | Text Only | Print | Product List | Glossary Off
Versions: 1 2 3 4 5 6 7 8 9 10 11 12 13 14 15 16 17 18 19 20 21 22 23 24 25 26 27 28 29 30 31 32 33 34 35 36 37 38 39 40 41 42 43 44 45 46 47 48 49 50

000
ASUS45 KCYS 240710
RWRWY

WYOMING REGIONAL WEATHER ROUNDUP
NATIONAL WEATHER SERVICE CHEYENNE WY
100 AM MDT TUE APR 24 2018

NOTE:  "FAIR" INDICATES FEW OR NO CLOUDS BELOW 12,000 FEET
WITH NO SIGNIFICANT WEATHER AND/OR OBSTRUCTIONS TO VISIBILITY.

WYZ001-240800-
YELLOWSTONE NATIONAL PARK

CITY           SKY/WX    TMP DP  RH WIND       PRES   REMARKS
LK YELLOWSTONE   N/A     21  16  81 NE3       30.40R
W YELLOWSTONE  NOT AVBL

$$
WYZ002>013-054>058-071-098>099-240800-
NORTHERN WYOMING

CITY           SKY/WX    TMP DP  RH WIND       PRES   REMARKS
JACKSON        FAIR      33  24  69 N16       30.32R WCI  23
CODY           LGT RAIN  32  30  92 VRB6      30.47R WCI  26
GREYBULL       FAIR      36  30  79 N13       30.42R WCI  27
WORLAND        CLOUDY    35  31  85 NW15      30.42R WCI  25
SHERIDAN       FLURRIES  34  33  96 NW13      30.48R WCI  25
BUFFALO        CLOUDY    32  30  92 N13       30.45R WCI  22
GILLETTE       CLOUDY    32  31  96 N21       30.40R WCI  20
HULETT         LGT SNOW  32  32 100 N13       30.39R WCI  22
NEWCASTLE      CLOUDY    32  30  93 NW20G25   30.36R WCI  20

$$
WYZ014>020-022>026-101>103-240800-
CENTRAL WYOMING

CITY           SKY/WX    TMP DP  RH WIND       PRES   REMARKS
BIG PINEY      CLOUDY    29  24  82 S9        30.31R WCI  20
PINEDALE       PTSUNNY   32  30  93 CALM      30.30R
DUBOIS         CLOUDY    28  27  93 SE9       30.35R WCI  20
LANDER         CLOUDY    32  26  78 S6        30.40R WCI  26
RIVERTON       CLOUDY    33  24  69 N16       30.39R WCI  23
CASPER         CLOUDY    32  28  85 N13       30.41R WCI  22
DOUGLAS        CLOUDY    34  29  82 NW14      30.40R WCI  25

$$
WYZ021-027>030-104>119-240800-
SOUTHERN WYOMING

CITY           SKY/WX    TMP DP  RH WIND       PRES   REMARKS
EVANSTON       FAIR      34  25  69 N6        30.28S WCI  29
KEMMERER       FAIR      30  25  80 E16       30.30R WCI  19
FORT BRIDGER   FAIR      30  21  69 SE6       30.32R WCI  24
ROCK SPRINGS   CLOUDY    32  25  75 NE14      30.35R WCI  22
DIXON          FAIR      37  28  70 NE12      30.28S WCI  29
RAWLINS        CLOUDY    30  25  81 NE13      30.35R WCI  20
SARATOGA       CLOUDY    34  28  80 N12       30.32R WCI  25
LARAMIE        CLOUDY    31  29  92 N15       30.30R WCI  20
CHEYENNE       CLOUDY    31  29  92 MISG      30.30R
TORRINGTON     CLOUDY    37  32  82 NW21G28   30.32R WCI  26
PINE BLUFFS    CLOUDY    34  32  93 N21G38    30.30R WCI  22

$$



USA.gov is the U.S. government's official web portal to all federal, state and local government web resources and services.